Time,TemperatureF,DewpointF,PressureIn,WindDirection,WindDirectionDegrees,WindSpeedMPH,WindSpeedGustMPH,Humidity,HourlyPrecipIn,Conditions,Clouds,dailyrainin,SoftwareType,DateUTC
2013-06-10 00:03:00,61.0,58.0,30.34,ENE,74,0.0,0.0,89,-99.99,,,-99.99,,2013-06-10 04:03:00,
2013-06-10 00:13:00,61.0,58.0,30.34,ENE,74,0.0,0.0,89,-99.99,,,-99.99,,2013-06-10 04:13:00,
2013-06-10 00:23:00,61.0,58.0,30.34,ENE,73,0.0,0.0,89,-99.99,,,-99.99,,2013-06-10 04:23:00,
2013-06-10 00:33:00,61.0,58.0,30.34,ENE,74,0.0,0.0,89,-99.99,,,-99.99,,2013-06-10 04:33:00,
2013-06-10 00:42:00,61.0,58.0,30.34,ENE,74,0.0,0.0,89,-99.99,,,-99.99,,2013-06-10 04:42:00,
2013-06-10 00:53:00,61.0,58.0,30.34,ENE,74,0.0,0.0,89,-99.99,,,-99.99,,2013-06-10 04:53:00,
2013-06-10 01:02:00,61.0,58.0,30.33,ENE,74,0.0,0.0,89,-99.99,,,-99.99,,2013-06-10 05:02:00,
2013-06-10 01:12:00,61.0,58.0,30.33,ENE,74,0.0,0.0,89,-99.99,,,-99.99,,2013-06-10 05:12:00,
2013-06-10 01:22:00,62.0,58.0,30.33,ENE,74,0.0,0.0,88,-99.99,,,-99.99,,2013-06-10 05:22:00,
2013-06-10 01:32:00,62.0,58.0,30.33,ENE,74,0.0,0.0,88,-99.99,,,-99.99,,2013-06-10 05:32:00,
2013-06-10 01:42:00,62.0,58.0,30.33,ENE,74,0.0,0.0,88,-99.99,,,-99.99,,2013-06-10 05:42:00,
2013-06-10 01:52:00,61.0,58.0,30.33,ESE,102,0.0,1.0,90,-99.99,,,-99.99,,2013-06-10 05:52:00,
2013-06-10 02:02:00,60.0,57.0,30.34,ESE,103,0.0,0.0,91,-99.99,,,-99.99,,2013-06-10 06:02:00,
2013-06-10 02:12:00,60.0,57.0,30.34,ESE,103,0.0,0.0,91,-99.99,,,-99.99,,2013-06-10 06:12:00,
2013-06-10 02:22:00,59.0,57.0,30.34,ESE,103,0.0,1.0,92,-99.99,,,-99.99,,2013-06-10 06:22:00,
2013-06-10 02:32:00,59.0,57.0,30.34,ESE,102,0.0,0.0,92,-99.99,,,-99.99,,2013-06-10 06:32:00,
2013-06-10 02:42:00,59.0,57.0,30.34,ESE,102,0.0,0.0,92,-99.99,,,-99.99,,2013-06-10 06:42:00,
2013-06-10 02:53:00,59.0,57.0,30.34,East,101,0.0,0.0,92,-99.99,,,-99.99,,2013-06-10 06:53:00,
2013-06-10 03:02:00,59.0,57.0,30.34,East,101,0.0,0.0,92,-99.99,,,-99.99,,2013-06-10 07:02:00,
2013-06-10 03:12:00,59.0,57.0,30.34,East,101,0.0,0.0,92,-99.99,,,-99.99,,2013-06-10 07:12:00,
2013-06-10 03:22:00,59.0,57.0,30.33,ESE,102,0.0,0.0,92,-99.99,,,-99.99,,2013-06-10 07:22:00,
2013-06-10 03:32:00,59.0,57.0,30.33,ESE,102,0.0,0.0,93,-99.99,,,-99.99,,2013-06-10 07:32:00,
2013-06-10 03:42:00,59.0,57.0,30.33,ESE,102,0.0,0.0,93,-99.99,,,-99.99,,2013-06-10 07:42:00,
2013-06-10 03:52:00,60.0,58.0,30.33,ESE,102,0.0,0.0,92,-99.99,,,-99.99,,2013-06-10 07:52:00,
2013-06-10 04:02:00,60.0,58.0,30.33,East,101,0.0,0.0,92,-99.99,,,-99.99,,2013-06-10 08:02:00,
2013-06-10 04:12:00,60.0,58.0,30.33,East,101,0.0,0.0,92,-99.99,,,-99.99,,2013-06-10 08:12:00,
2013-06-10 04:22:00,60.0,58.0,30.32,ESE,102,0.0,0.0,92,-99.99,,,-99.99,,2013-06-10 08:22:00,
2013-06-10 04:32:00,60.0,58.0,30.32,ESE,102,0.0,0.0,92,-99.99,,,-99.99,,2013-06-10 08:32:00,
2013-06-10 04:42:00,60.0,58.0,30.32,ESE,102,0.0,0.0,92,-99.99,,,-99.99,,2013-06-10 08:42:00,
2013-06-10 04:52:00,61.0,58.0,30.32,ESE,103,0.0,1.0,91,-99.99,,,-99.99,,2013-06-10 08:52:00,
2013-06-10 05:02:00,60.0,57.0,30.33,SSE,158,0.0,0.0,91,-99.99,,,-99.99,,2013-06-10 09:02:00,
2013-06-10 05:12:00,60.0,57.0,30.33,SSE,158,0.0,0.0,91,-99.99,,,-99.99,,2013-06-10 09:12:00,
2013-06-10 05:22:00,60.0,57.0,30.33,SSE,158,0.0,1.0,91,-99.99,,,-99.99,,2013-06-10 09:22:00,
2013-06-10 05:32:00,59.0,57.0,30.32,SSE,158,0.0,1.0,92,-99.99,,,-99.99,,2013-06-10 09:32:00,
2013-06-10 05:42:00,59.0,57.0,30.32,SSE,158,0.0,1.0,92,-99.99,,,-99.99,,2013-06-10 09:42:00,
2013-06-10 05:53:00,59.0,57.0,30.33,SSE,158,0.0,1.0,93,-99.99,,,-99.99,,2013-06-10 09:53:00,
2013-06-10 06:03:00,59.0,57.0,30.33,SSE,158,0.0,0.0,93,-99.99,,,-99.99,,2013-06-10 10:03:00,
2013-06-10 06:13:00,59.0,57.0,30.33,SSE,158,0.0,0.0,93,-99.99,,,-99.99,,2013-06-10 10:13:00,
2013-06-10 06:23:00,60.0,58.0,30.33,SSE,158,0.0,0.0,93,-99.99,,,-99.99,,2013-06-10 10:23:00,
2013-06-10 06:33:00,60.0,58.0,30.33,SSE,158,0.0,0.0,93,-99.99,,,-99.99,,2013-06-10 10:33:00,
2013-06-10 06:42:00,60.0,58.0,30.33,SSE,158,0.0,0.0,93,-99.99,,,-99.99,,2013-06-10 10:42:00,
2013-06-10 06:52:00,60.0,58.0,30.34,WSW,250,0.0,1.0,93,-99.99,,,-99.99,,2013-06-10 10:52:00,
2013-06-10 07:03:00,61.0,59.0,30.33,WSW,250,0.0,1.0,92,-99.99,,,-99.99,,2013-06-10 11:03:00,
2013-06-10 07:12:00,61.0,59.0,30.33,WSW,250,0.0,1.0,92,-99.99,,,-99.99,,2013-06-10 11:12:00,
2013-06-10 07:22:00,62.0,59.0,30.33,ESE,120,0.0,1.0,89,-99.99,,,-99.99,,2013-06-10 11:22:00,
2013-06-10 07:32:00,63.0,60.0,30.33,ESE,120,0.0,1.0,90,-99.99,,,-99.99,,2013-06-10 11:32:00,
2013-06-10 07:42:00,63.0,60.0,30.33,ESE,120,0.0,1.0,90,-99.99,,,-99.99,,2013-06-10 11:42:00,
2013-06-10 07:52:00,63.0,60.0,30.34,ESE,120,0.0,1.0,90,-99.99,,,-99.99,,2013-06-10 11:52:00,
2013-06-10 08:02:00,63.0,60.0,30.34,ESE,120,0.0,1.0,90,-99.99,,,-99.99,,2013-06-10 12:02:00,
2013-06-10 08:12:00,63.0,60.0,30.34,ESE,120,0.0,1.0,90,-99.99,,,-99.99,,2013-06-10 12:12:00,
2013-06-10 08:22:00,65.0,61.0,30.33,SSE,149,0.0,0.0,87,-99.99,,,-99.99,,2013-06-10 12:22:00,
2013-06-10 08:32:00,66.0,62.0,30.33,SSE,150,0.0,0.0,88,-99.99,,,-99.99,,2013-06-10 12:32:00,
2013-06-10 08:42:00,66.0,62.0,30.33,SSE,150,0.0,0.0,88,-99.99,,,-99.99,,2013-06-10 12:42:00,
2013-06-10 08:52:00,67.0,61.0,30.33,SSE,163,0.0,3.0,82,-99.99,,,-99.99,,2013-06-10 12:52:00,
2013-06-10 09:02:00,67.0,62.0,30.33,SSW,210,0.0,1.0,83,-99.99,,,-99.99,,2013-06-10 13:02:00,
2013-06-10 09:12:00,67.0,62.0,30.33,SSW,210,0.0,1.0,83,-99.99,,,-99.99,,2013-06-10 13:12:00,
2013-06-10 09:22:00,67.0,62.0,30.33,SSE,149,0.0,2.0,83,-99.99,,,-99.99,,2013-06-10 13:22:00,
2013-06-10 09:32:00,67.0,62.0,30.32,SE,144,0.0,1.0,83,-99.99,,,-99.99,,2013-06-10 13:32:00,
2013-06-10 09:42:00,67.0,62.0,30.32,SE,144,0.0,1.0,83,-99.99,,,-99.99,,2013-06-10 13:42:00,
2013-06-10 09:52:00,66.0,61.0,30.32,ESE,105,0.0,1.0,84,-99.99,,,-99.99,,2013-06-10 13:52:00,
2013-06-10 10:02:00,67.0,62.0,30.32,ESE,105,0.0,1.0,85,-99.99,,,-99.99,,2013-06-10 14:02:00,
2013-06-10 10:12:00,67.0,62.0,30.32,ESE,105,0.0,1.0,85,-99.99,,,-99.99,,2013-06-10 14:12:00,
2013-06-10 10:22:00,67.0,62.0,30.32,SE,129,0.0,4.0,84,-99.99,,,-99.99,,2013-06-10 14:22:00,
2013-06-10 10:32:00,67.0,62.0,30.32,SE,128,0.0,1.0,83,-99.99,,,-99.99,,2013-06-10 14:32:00,
2013-06-10 10:42:00,67.0,62.0,30.32,SE,128,0.0,1.0,83,-99.99,,,-99.99,,2013-06-10 14:42:00,
2013-06-10 10:52:00,67.0,61.0,30.32,ESE,106,0.0,2.0,82,-99.99,,,-99.99,,2013-06-10 14:52:00,
2013-06-10 11:02:00,68.0,62.0,30.32,ESE,110,1.0,6.0,82,-99.99,,,-99.99,,2013-06-10 15:02:00,
2013-06-10 11:12:00,68.0,62.0,30.32,ESE,110,1.0,6.0,82,-99.99,,,-99.99,,2013-06-10 15:12:00,
2013-06-10 11:22:00,69.0,61.0,30.31,WNW,287,1.0,7.0,77,-99.99,,,-99.99,,2013-06-10 15:22:00,
2013-06-10 11:33:00,70.0,62.0,30.31,ESE,115,2.0,9.0,75,-99.99,,,-99.99,,2013-06-10 15:33:00,
2013-06-10 11:43:00,70.0,62.0,30.31,ESE,115,2.0,9.0,75,-99.99,,,-99.99,,2013-06-10 15:43:00,
2013-06-10 11:53:00,71.0,62.0,30.32,East,82,1.0,5.0,73,-99.99,,,-99.99,,2013-06-10 15:53:00,
2013-06-10 12:03:00,71.0,62.0,30.32,SSW,194,2.0,5.0,72,-99.99,,,-99.99,,2013-06-10 16:03:00,
2013-06-10 12:13:00,71.0,62.0,30.32,SSW,194,2.0,5.0,72,-99.99,,,-99.99,,2013-06-10 16:13:00,
2013-06-10 12:23:00,71.0,60.0,30.31,ESE,106,2.0,6.0,69,-99.99,,,-99.99,,2013-06-10 16:23:00,
2013-06-10 12:33:00,71.0,59.0,30.30,East,100,1.0,6.0,67,-99.99,,,-99.99,,2013-06-10 16:33:00,
2013-06-10 12:43:00,71.0,59.0,30.30,East,100,1.0,6.0,67,-99.99,,,-99.99,,2013-06-10 16:43:00,
2013-06-10 12:52:00,71.0,59.0,30.30,NE,50,2.0,10.0,67,-99.99,,,-99.99,,2013-06-10 16:52:00,
2013-06-10 13:03:00,71.0,60.0,30.30,SSE,160,2.0,10.0,68,-99.99,,,-99.99,,2013-06-10 17:03:00,
2013-06-10 13:14:00,71.0,60.0,30.30,SSE,160,2.0,10.0,68,-99.99,,,-99.99,,2013-06-10 17:14:00,
2013-06-10 13:27:00,71.0,59.0,30.30,ENE,77,2.0,8.0,66,-99.99,,,-99.99,,2013-06-10 17:27:00,
2013-06-10 13:38:00,71.0,59.0,30.30,ENE,77,2.0,8.0,66,-99.99,,,-99.99,,2013-06-10 17:38:00,
2013-06-10 13:48:00,69.0,59.0,30.29,SSW,200,3.0,11.0,70,-99.99,,,-99.99,,2013-06-10 17:48:00,
2013-06-10 13:57:00,69.0,59.0,30.29,SSW,200,3.0,11.0,70,-99.99,,,-99.99,,2013-06-10 17:57:00,
2013-06-10 14:08:00,69.0,59.0,30.29,SSW,200,3.0,11.0,70,-99.99,,,-99.99,,2013-06-10 18:08:00,
2013-06-10 14:14:00,69.0,59.0,30.29,SSW,200,3.0,11.0,70,-99.99,,,-99.99,,2013-06-10 18:14:00,
2013-06-10 14:25:00,68.0,59.0,30.29,SE,125,1.0,9.0,74,-99.99,,,-99.99,,2013-06-10 18:25:00,
2013-06-10 14:35:00,67.0,60.0,30.29,SE,128,2.0,6.0,78,-99.99,,,-99.99,,2013-06-10 18:35:00,
2013-06-10 14:48:00,67.0,60.0,30.29,SE,128,2.0,6.0,78,-99.99,,,-99.99,,2013-06-10 18:48:00,
2013-06-10 14:55:00,66.0,60.0,30.29,SE,132,1.0,5.0,81,-99.99,,,-99.99,,2013-06-10 18:55:00,
2013-06-10 15:03:00,66.0,60.0,30.29,SE,132,1.0,5.0,81,-99.99,,,-99.99,,2013-06-10 19:03:00,
2013-06-10 15:13:00,66.0,60.0,30.29,SE,132,1.0,5.0,81,-99.99,,,-99.99,,2013-06-10 19:13:00,
2013-06-10 15:22:00,67.0,62.0,30.28,SW,229,2.0,10.0,83,-99.99,,,-99.99,,2013-06-10 19:22:00,
2013-06-10 15:33:00,67.0,62.0,30.27,SE,125,2.0,8.0,85,-99.99,,,-99.99,,2013-06-10 19:33:00,
2013-06-10 15:43:00,67.0,62.0,30.27,SE,125,2.0,8.0,85,-99.99,,,-99.99,,2013-06-10 19:43:00,
2013-06-10 15:53:00,66.0,62.0,30.27,South,190,2.0,8.0,86,-99.99,,,-99.99,,2013-06-10 19:53:00,
2013-06-10 16:03:00,66.0,62.0,30.27,SW,236,3.0,8.0,87,-99.99,,,-99.99,,2013-06-10 20:03:00,
2013-06-10 16:12:00,66.0,62.0,30.27,SW,236,3.0,8.0,87,-99.99,,,-99.99,,2013-06-10 20:12:00,
2013-06-10 16:23:00,65.0,62.0,30.25,ESE,116,1.0,6.0,89,-99.99,,,-99.99,,2013-06-10 20:23:00,
2013-06-10 16:32:00,65.0,62.0,30.25,South,187,1.0,7.0,89,-99.99,,,-99.99,,2013-06-10 20:32:00,
2013-06-10 16:43:00,65.0,62.0,30.25,South,187,1.0,7.0,89,-99.99,,,-99.99,,2013-06-10 20:43:00,
2013-06-10 16:53:00,65.0,62.0,30.24,South,188,2.0,9.0,90,-99.99,,,-99.99,,2013-06-10 20:53:00,
2013-06-10 17:02:00,64.0,61.0,30.24,SSW,194,2.0,9.0,91,-99.99,,,-99.99,,2013-06-10 21:02:00,
2013-06-10 17:12:00,64.0,61.0,30.24,SSW,194,2.0,9.0,91,-99.99,,,-99.99,,2013-06-10 21:12:00,
2013-06-10 17:23:00,63.0,61.0,30.22,ENE,77,2.0,8.0,92,-99.99,,,-99.99,,2013-06-10 21:23:00,
2013-06-10 17:33:00,63.0,61.0,30.22,ESE,117,1.0,13.0,92,-99.99,,,-99.99,,2013-06-10 21:33:00,
2013-06-10 17:43:00,63.0,61.0,30.22,ESE,117,1.0,13.0,92,-99.99,,,-99.99,,2013-06-10 21:43:00,
2013-06-10 17:53:00,62.0,60.0,30.22,SSE,158,3.0,9.0,93,-99.99,,,-99.99,,2013-06-10 21:53:00,
2013-06-10 18:03:00,62.0,60.0,30.21,SE,131,3.0,9.0,93,-99.99,,,-99.99,,2013-06-10 22:03:00,
2013-06-10 18:13:00,62.0,60.0,30.21,SE,131,3.0,9.0,93,-99.99,,,-99.99,,2013-06-10 22:13:00,
2013-06-10 18:23:00,60.0,58.0,30.20,SE,145,2.0,12.0,93,-99.99,,,-99.99,,2013-06-10 22:23:00,
2013-06-10 18:33:00,60.0,58.0,30.19,ENE,72,2.0,8.0,93,-99.99,,,-99.99,,2013-06-10 22:33:00,
2013-06-10 18:42:00,60.0,58.0,30.19,ENE,72,2.0,8.0,93,-99.99,,,-99.99,,2013-06-10 22:42:00,
2013-06-10 18:52:00,60.0,58.0,30.19,East,79,2.0,8.0,93,-99.99,,,-99.99,,2013-06-10 22:52:00,
2013-06-10 19:03:00,59.0,57.0,30.18,East,83,1.0,8.0,94,-99.99,,,-99.99,,2013-06-10 23:03:00,
2013-06-10 19:12:00,59.0,57.0,30.18,East,83,1.0,8.0,94,-99.99,,,-99.99,,2013-06-10 23:12:00,
2013-06-10 19:22:00,59.0,57.0,30.17,ENE,71,2.0,12.0,94,-99.99,,,-99.99,,2013-06-10 23:22:00,
2013-06-10 19:32:00,59.0,57.0,30.17,SSE,153,2.0,10.0,94,-99.99,,,-99.99,,2013-06-10 23:32:00,
2013-06-10 19:42:00,59.0,57.0,30.17,SSE,153,2.0,10.0,94,-99.99,,,-99.99,,2013-06-10 23:42:00,
2013-06-10 19:52:00,59.0,57.0,30.16,East,81,2.0,10.0,94,-99.99,,,-99.99,,2013-06-10 23:52:00,
2013-06-10 20:02:00,59.0,57.0,30.16,NE,36,2.0,10.0,94,-99.99,,,-99.99,,2013-06-11 00:02:00,
2013-06-10 20:13:00,59.0,57.0,30.15,ESE,105,2.0,8.0,94,-99.99,,,-99.99,,2013-06-11 00:13:00,
2013-06-10 20:22:00,59.0,57.0,30.15,ESE,105,2.0,8.0,94,-99.99,,,-99.99,,2013-06-11 00:22:00,
2013-06-10 20:32:00,58.0,56.0,30.14,ESE,112,2.0,9.0,94,-99.99,,,-99.99,,2013-06-11 00:32:00,
2013-06-10 20:42:00,58.0,56.0,30.14,ESE,112,2.0,9.0,94,-99.99,,,-99.99,,2013-06-11 00:42:00,
2013-06-10 20:52:00,58.0,56.0,30.14,ESE,112,2.0,9.0,94,-99.99,,,-99.99,,2013-06-11 00:52:00,
2013-06-10 21:02:00,58.0,56.0,30.13,ENE,67,3.0,11.0,94,-99.99,,,-99.99,,2013-06-11 01:02:00,
2013-06-10 21:12:00,58.0,56.0,30.13,ENE,67,3.0,11.0,94,-99.99,,,-99.99,,2013-06-11 01:12:00,
2013-06-10 21:22:00,58.0,56.0,30.14,West,259,3.0,10.0,94,-99.99,,,-99.99,,2013-06-11 01:22:00,
2013-06-10 21:33:00,58.0,56.0,30.14,East,79,3.0,11.0,94,-99.99,,,-99.99,,2013-06-11 01:33:00,
2013-06-10 21:42:00,58.0,56.0,30.14,East,79,3.0,11.0,94,-99.99,,,-99.99,,2013-06-11 01:42:00,
2013-06-10 21:53:00,58.0,56.0,30.14,ESE,103,2.0,11.0,94,-99.99,,,-99.99,,2013-06-11 01:53:00,
2013-06-10 22:02:00,58.0,56.0,30.14,West,269,2.0,9.0,94,-99.99,,,-99.99,,2013-06-11 02:02:00,
2013-06-10 22:12:00,58.0,56.0,30.14,West,269,2.0,9.0,94,-99.99,,,-99.99,,2013-06-11 02:12:00,
2013-06-10 22:22:00,58.0,56.0,30.14,East,98,2.0,10.0,94,-99.99,,,-99.99,,2013-06-11 02:22:00,
2013-06-10 22:32:00,58.0,56.0,30.13,ENE,67,2.0,9.0,94,-99.99,,,-99.99,,2013-06-11 02:32:00,
2013-06-10 22:42:00,58.0,56.0,30.12,East,94,2.0,9.0,94,-99.99,,,-99.99,,2013-06-11 02:42:00,
2013-06-10 22:52:00,58.0,56.0,30.12,East,94,2.0,9.0,94,-99.99,,,-99.99,,2013-06-11 02:52:00,
2013-06-10 23:03:00,58.0,56.0,30.11,East,82,2.0,7.0,94,-99.99,,,-99.99,,2013-06-11 03:03:00,
2013-06-10 23:13:00,58.0,56.0,30.10,East,89,2.0,8.0,94,-99.99,,,-99.99,,2013-06-11 03:13:00,
2013-06-10 23:22:00,58.0,56.0,30.10,East,89,2.0,8.0,94,-99.99,,,-99.99,,2013-06-11 03:22:00,
2013-06-10 23:32:00,58.0,56.0,30.08,ESE,110,2.0,9.0,94,-99.99,,,-99.99,,2013-06-11 03:32:00,
2013-06-10 23:43:00,58.0,56.0,30.08,North,6,2.0,8.0,94,-99.99,,,-99.99,,2013-06-11 03:43:00,
2013-06-10 23:53:00,58.0,56.0,30.08,North,6,2.0,8.0,94,-99.99,,,-99.99,,2013-06-11 03:53:00,